Dewpoint
5 5 4 3 3 2 6 9 10 11 11 10 10 11 11 11 9 6 9 10 11 10 9 6 7 11 10 8 4 5 5 5 5
-1 -4 -6 -7 -7 -6 -6 -3 -1 1 3 7 9 10 11 11 12 11 8 10 10 10 9 8 6 7 10 11 10 7 4 4 5
-12 -14 -15 -14 -14 -13 -14 -13 -12 -11 -9 -6 -4 8 10 10 10 11 11 12 12 12 10 6 4 4 6 11 12 12 10 7 3
-15 -15 -14 -14 -13 -14 -14 -14 -14 -14 -13 -13 -12 -10 -3 2 3 8 10 9 11 11 12 12 10 6 3 5 9 10 12 11 8
-13 -12 -12 -12 -11 -11 -10 -10 -10 -10 -11 -11 -12 -12 -11 -7 -2 -1 -1 9 10 10 12 11 11 12 11 7 3 8 10 12 11
-12 -10 -11 -11 -11 -10 -9 -9 -8 -8 -7 -6 -5 -5 -1 0 4 4 9 9 8 11 12 12 10 11 12 12 11 6 4 8 10
-10 -10 -10 -9 -9 -9 -10 -9 -9 -8 -5 -4 -3 -3 -2 -0 -0 1 3 7 8 7 8 9 10 11 11 11 11 12 11 6 7
-9 -9 -9 -11 -13 -13 -11 -9 -8 -7 -7 -6 -5 -3 -0 -0 -0 -0 0 1 2 7 7 6 6 8 10 10 11 12 12 12 11
-10 -12 -15 -14 -10 -7 -6 -3 -2 -1 -0 -1 -3 -3 -1 -0 1 0 -0 0 1 2 2 3 2 1 -1 -2 3 8 11 12 12
-15 -15 -11 -8 -5 -4 -3 -2 -1 1 2 2 3 3 2 1 -0 -1 0 1 2 2 2 2 2 2 1 0 -2 1 4 9 10
-15 -9 -6 -5 -4 -3 -2 -0 2 3 4 3 4 4 3 3 3 3 3 2 1 2 2 3 4 7 6 4 2 -2 -4 -4 -0
-10 -5 -4 -4 -3 -2 1 3 4 3 1 1 1 1 1 2 2 2 2 1 2 2 4 4 6 5 4 5 7 6 5 4 2
-6 -3 -4 -3 -2 0 2 3 2 1 2 2 -0 1 3 3 3 3 2 2 3 2 3 4 5 6 6 6 7 7 5 5 5
-6 -2 -2 -2 -0 1 3 4 4 3 3 0 -1 2 2 2 2 2 3 4 4 3 2 3 5 6 6 6 6 6 4 2 1
-5 -1 -1 -1 0 2 4 5 4 3 3 -1 0 1 1 3 2 3 4 5 5 5 4 4 4 5 5 4 3 2 2 2 1
-9 -1 -0 -1 1 2 4 4 4 2 3 0 3 3 4 4 3 4 4 4 5 5 4 5 5 5 3 3 3 3 3 3 3
-12 -3 -0 -0 -0 0 2 4 4 4 4 3 1 3 5 3 4 4 3 4 5 5 5 5 5 4 4 4 4 3 3 4 7
-12 -7 -0 1 0 2 3 5 4 4 3 4 3 3 3 1 4 4 3 2 5 5 5 4 5 6 4 3 3 2 2 2 4
-8 -11 -1 0 0 2 5 5 5 4 4 4 4 4 4 3 2 1 -0 2 5 5 5 6 5 5 4 3 3 2 1 1 1
-5 -7 -6 -0 0 -2 0 3 5 5 4 4 4 3 3 3 3 3 1 3 4 5 4 5 4 5 5 4 3 3 2 1 -1
Wind_Speed
10 10 10 11 11 11 11 10 12 12 12 12 12 12 11 10 8 7 8 5 13 13 11 10 10 10 9 7 7 6 6 5 5
11 11 11 12 12 13 13 13 13 14 15 14 14 14 14 13 11 9 9 8 11 15 15 14 12 12 11 11 9 8 8 7 6
12 12 13 13 14 14 15 15 16 16 16 16 16 16 17 17 16 13 11 11 13 16 16 15 15 14 12 13 14 13 10 9 9
12 13 13 14 16 16 17 17 18 18 18 18 18 18 19 21 20 18 16 15 16 19 20 17 16 16 16 14 15 15 16 13 11
14 15 16 16 17 17 18 18 19 19 19 19 18 17 18 18 17 17 18 19 21 20 21 20 20 19 18 17 17 17 17 18 16
14 16 17 18 18 19 20 19 20 18 18 17 14 15 14 12 12 12 12 13 17 20 20 20 19 20 19 19 19 20 20 18 18
16 18 19 20 21 21 22 21 20 19 18 18 16 16 16 15 15 15 11 15 16 18 20 20 20 21 21 19 18 19 21 21 21
17 18 19 20 21 21 21 22 21 20 19 19 18 16 16 18 19 21 18 18 17 17 19 21 22 24 25 23 19 17 17 20 21
19 19 20 21 21 21 22 22 22 21 19 18 17 17 17 18 19 20 22 22 20 21 23 26 27 27 27 27 25 22 21 15 17
19 19 20 20 20 21 22 22 21 19 17 16 14 14 15 15 16 17 19 21 23 23 24 25 23 24 22 21 22 23 23 23 23
21 20 20 20 19 20 20 17 16 15 16 14 14 14 12 11 11 13 15 15 17 20 21 19 17 11 12 15 17 19 20 22 24
21 21 20 19 18 16 14 12 14 14 13 13 12 10 10 9 10 12 11 9 8 10 12 12 8 9 7 6 8 10 12 15 18
21 20 19 18 16 13 13 15 16 14 13 14 15 9 6 8 8 5 6 6 8 8 6 7 6 3 5 5 7 9 9 11 14
20 20 18 17 15 12 13 13 15 16 14 15 12 8 7 7 5 7 7 9 9 10 6 3 1 4 6 5 5 7 11 12 12
19 19 18 15 14 11 11 14 16 14 15 14 11 6 9 8 9 12 10 13 10 11 11 5 4 2 3 5 9 12 14 14 13
18 18 17 15 13 13 11 17 16 10 12 13 5 5 5 6 8 4 4 7 8 13 9 9 7 5 6 8 10 13 12 11 14
19 17 17 16 13 12 9 11 14 15 10 15 7 5 2 6 3 2 4 5 5 9 8 7 6 7 9 8 9 12 13 10 14
17 17 16 17 15 12 11 11 11 14 8 8 10 5 4 9 4 5 7 4 2 5 8 8 6 9 8 7 10 13 15 15 16
18 17 16 17 18 13 11 9 9 9 11 2 2 6 6 5 6 4 5 1 3 4 5 6 11 12 10 9 12 15 17 18 18
18 17 15 15 17 17 13 11 9 9 8 7 8 6 7 4 4 10 15 3 1 4 3 5 11 12 16 13 15 16 18 19 20
Wind_Direction
341 337 333 329 327 326 324 321 318 317 314 313 314 315 314 311 306 299 285 290 293 299 296 305 289 287 300 314 314 312 306 307 310
330 327 324 321 317 314 310 305 300 297 298 299 302 302 297 295 296 298 282 267 278 291 294 291 287 278 281 285 292 302 305 299 296
321 319 319 315 311 309 306 302 299 295 292 289 286 281 284 287 287 284 285 289 285 291 290 288 284 284 278 277 281 280 287 292 291
323 322 320 315 312 311 307 303 300 297 295 292 289 284 282 282 282 280 278 266 271 279 288 294 290 286 280 274 274 281 275 278 280
326 326 324 318 317 313 308 305 301 300 296 292 286 281 276 283 294 289 273 265 264 262 266 275 287 288 284 280 272 271 275 270 271
322 318 318 316 316 312 309 306 302 297 292 289 284 277 278 280 280 290 278 281 276 280 266 268 273 278 280 281 276 271 268 271 268
322 320 319 318 316 314 311 309 304 302 294 287 283 276 267 260 266 278 277 268 268 275 274 272 272 273 277 279 279 275 270 268 267
320 319 316 313 309 310 307 306 306 304 298 292 290 279 266 261 257 256 263 263 263 262 270 275 280 273 271 273 276 278 275 268 267
325 322 320 317 315 310 309 311 310 306 304 301 294 286 278 273 267 260 256 266 270 266 268 274 278 279 276 273 272 271 266 277 272
329 327 324 321 317 317 317 315 313 312 312 310 300 296 293 289 284 276 266 261 267 270 272 276 283 284 281 273 269 269 270 268 266
333 332 330 326 326 326 323 324 329 327 322 319 306 301 300 299 303 294 286 278 271 272 273 278 287 297 299 279 274 274 274 273 266
337 336 333 332 334 335 339 346 338 332 331 327 322 314 315 296 305 309 305 302 301 280 276 283 289 322 342 329 318 304 293 289 285
338 338 336 335 342 340 338 342 337 337 337 332 334 323 337 324 320 342 350 343 329 321 295 272 314 349 359 353 331 326 299 283 286
339 339 337 335 338 339 343 341 329 335 329 338 341 321 1 355 21 23 25 23 12 16 11 309 47 12 15 340 333 304 304 305 308
339 338 335 329 328 331 329 323 319 323 324 342 1 66 70 51 49 38 39 37 35 27 31 45 57 34 311 316 320 318 316 312 308
337 334 335 329 320 320 316 325 340 352 338 353 78 63 80 30 63 50 38 35 40 30 37 47 31 347 344 339 341 343 336 338 325
338 337 337 331 312 319 317 334 344 346 0 3 13 22 52 73 147 285 349 23 41 51 35 10 346 3 352 354 1 4 3 343 350
335 336 336 337 328 327 331 333 337 340 6 34 16 350 346 345 196 255 315 320 66 55 40 0 355 341 348 349 357 1 356 349 350
332 335 335 335 336 326 319 320 322 328 335 93 343 348 329 340 323 242 346 154 143 78 22 351 347 336 333 341 351 351 349 346 345
322 328 332 333 332 330 321 314 307 309 307 314 319 317 317 303 307 309 342 106 218 150 21 316 334 341 327 334 348 348 343 342 349
Height
1566 1564 1563 1562 1560 1559 1558 1557 1556 1555 1554 1553 1552 1551 1551 1550 1549 1549 1548 1547 1547 1547 1546 1546 1545 1544 1544 1543 1542 1542 1541 1541 1540
1564 1563 1562 1560 1559 1557 1556 1555 1554 1553 1552 1551 1550 1549 1548 1548 1547 1547 1546 1545 1545 1545 1544 1544 1543 1543 1542 1542 1542 1541 1541 1540 1540
1563 1561 1560 1559 1557 1555 1554 1552 1551 1550 1549 1548 1547 1546 1545 1544 1544 1544 1544 1544 1543 1542 1542 1541 1541 1541 1540 1540 1540 1540 1539 1539 1539
1561 1559 1558 1556 1554 1553 1551 1549 1548 1546 1545 1544 1543 1542 1541 1540 1540 1540 1540 1540 1540 1540 1539 1539 1538 1537 1537 1538 1537 1537 1537 1537 1537
1558 1556 1555 1553 1551 1549 1547 1545 1544 1542 1541 1539 1538 1537 1536 1536 1536 1535 1535 1536 1536 1536 1535 1535 1535 1535 1534 1534 1534 1534 1533 1534 1534
1556 1554 1552 1550 1549 1547 1545 1542 1540 1538 1536 1535 1534 1533 1533 1533 1532 1530 1531 1531 1531 1531 1532 1531 1531 1530 1530 1530 1530 1530 1530 1530 1530
1553 1551 1549 1547 1544 1543 1540 1538 1536 1534 1533 1531 1530 1529 1528 1528 1527 1527 1526 1525 1526 1527 1526 1526 1526 1525 1526 1525 1525 1525 1525 1525 1526
1552 1549 1546 1544 1541 1539 1536 1534 1532 1530 1529 1527 1526 1525 1523 1523 1523 1523 1522 1522 1522 1522 1520 1521 1520 1520 1520 1520 1520 1521 1520 1520 1521
1549 1546 1543 1540 1537 1534 1532 1530 1528 1526 1524 1523 1521 1520 1519 1519 1518 1518 1518 1517 1517 1517 1517 1516 1516 1515 1515 1515 1515 1515 1515 1516 1516
1547 1544 1541 1538 1534 1531 1529 1526 1524 1522 1520 1519 1517 1516 1515 1515 1514 1513 1513 1513 1513 1512 1512 1512 1511 1510 1509 1509 1510 1510 1510 1511 1511
1545 1542 1539 1535 1533 1530 1527 1524 1522 1520 1518 1515 1514 1513 1512 1511 1511 1510 1510 1509 1509 1508 1508 1508 1507 1506 1505 1504 1504 1504 1504 1504 1505
1542 1539 1536 1534 1531 1529 1526 1524 1521 1519 1517 1514 1512 1511 1510 1509 1508 1507 1507 1507 1506 1505 1504 1504 1504 1503 1502 1502 1502 1501 1501 1500 1499
1541 1538 1535 1532 1530 1528 1525 1522 1520 1518 1516 1513 1511 1509 1507 1507 1507 1506 1505 1505 1504 1503 1502 1502 1502 1502 1501 1501 1501 1499 1498 1496 1496
1539 1536 1533 1530 1528 1527 1524 1523 1519 1517 1514 1511 1509 1508 1507 1507 1506 1506 1505 1504 1504 1502 1501 1501 1501 1501 1500 1499 1499 1497 1495 1494 1493
1538 1535 1532 1529 1527 1525 1524 1521 1519 1516 1513 1510 1507 1507 1507 1508 1507 1507 1506 1505 1504 1503 1501 1501 1500 1500 1498 1497 1496 1495 1492 1491 1489
1537 1534 1531 1528 1526 1524 1522 1520 1517 1515 1512 1509 1508 1508 1508 1508 1508 1506 1505 1504 1503 1502 1502 1501 1500 1498 1497 1496 1495 1493 1490 1489 1486
1535 1532 1529 1527 1524 1522 1521 1519 1517 1515 1513 1511 1509 1509 1510 1509 1507 1507 1506 1504 1503 1502 1502 1501 1499 1498 1496 1495 1493 1491 1488 1486 1484
1534 1531 1528 1525 1522 1520 1519 1518 1517 1515 1514 1513 1513 1510 1509 1508 1507 1506 1505 1504 1503 1502 1501 1500 1499 1498 1496 1494 1492 1489 1486 1483 1480
1531 1529 1527 1524 1522 1519 1517 1517 1516 1515 1514 1514 1513 1513 1512 1509 1507 1505 1505 1502 1503 1503 1502 1500 1499 1497 1495 1493 1490 1487 1484 1480 1477
1529 1527 1525 1523 1521 1519 1516 1515 1514 1514 1513 1512 1512 1511 1510 1509 1509 1506 1502 1502 1502 1502 1502 1500 1499 1497 1494 1491 1488 1485 1481 1477 1475